TimeAKDT,TemperatureF,Dew PointF,Humidity,Sea Level PressureIn,VisibilityMPH,Wind Direction,Wind SpeedMPH,Gust SpeedMPH,PrecipitationIn,Events,Conditions,WindDirDegrees,DateUTC
12:53 AM,36.0,23.0,59,29.63,10.0,NW,15.0,32.2,N/A,,Partly Cloudy,320,2012-10-18 08:53:00
1:53 AM,36.0,23.0,59,29.63,10.0,NNW,20.7,33.4,N/A,,Mostly Cloudy,330,2012-10-18 09:53:00
2:53 AM,36.0,21.0,55,29.64,10.0,NW,17.3,32.2,N/A,,Clear,320,2012-10-18 10:53:00
3:53 AM,36.0,21.0,55,29.66,10.0,NNW,12.7,23.0,N/A,,Partly Cloudy,340,2012-10-18 11:53:00
4:53 AM,35.1,19.9,54,29.67,10.0,North,8.1,-,N/A,,Clear,360,2012-10-18 12:53:00
5:53 AM,34.0,18.0,52,29.68,10.0,NNW,13.8,25.3,N/A,,Clear,340,2012-10-18 13:53:00
6:53 AM,33.1,18.0,54,29.69,10.0,NNE,10.4,-,N/A,,Partly Cloudy,20,2012-10-18 14:53:00
7:53 AM,33.1,17.1,52,29.70,10.0,NNE,12.7,24.2,N/A,,Clear,20,2012-10-18 15:53:00
8:53 AM,32.0,17.1,54,29.72,10.0,North,15.0,23.0,N/A,,Clear,10,2012-10-18 16:53:00
9:53 AM,33.1,16.0,50,29.73,10.0,North,11.5,24.2,N/A,,Clear,10,2012-10-18 17:53:00
10:53 AM,35.1,14.0,42,29.74,10.0,North,12.7,24.2,N/A,,Clear,360,2012-10-18 18:53:00
11:53 AM,36.0,14.0,41,29.75,10.0,North,13.8,21.9,N/A,,Clear,10,2012-10-18 19:53:00
12:53 PM,37.0,14.0,39,29.75,10.0,North,11.5,25.3,N/A,,Clear,360,2012-10-18 20:53:00
1:53 PM,37.0,14.0,39,29.75,10.0,NNW,16.1,25.3,N/A,,Clear,340,2012-10-18 21:53:00
2:53 PM,37.0,15.1,41,29.74,10.0,NW,12.7,31.1,N/A,,Clear,310,2012-10-18 22:53:00
3:53 PM,37.0,15.1,41,29.74,10.0,NW,17.3,27.6,N/A,,Clear,320,2012-10-18 23:53:00
4:53 PM,36.0,15.1,43,29.74,10.0,NNW,10.4,18.4,N/A,,Clear,330,2012-10-19 00:53:00
5:53 PM,34.0,16.0,48,29.74,10.0,NW,16.1,26.5,N/A,,Clear,320,2012-10-19 01:53:00
6:53 PM,34.0,17.1,50,29.75,10.0,NNW,16.1,24.2,N/A,,Clear,340,2012-10-19 02:53:00
7:53 PM,33.1,17.1,52,29.75,10.0,North,15.0,23.0,N/A,,Clear,10,2012-10-19 03:53:00
8:53 PM,33.1,17.1,52,29.77,10.0,North,15.0,18.4,N/A,,Clear,360,2012-10-19 04:53:00
9:53 PM,32.0,17.1,54,29.78,10.0,North,17.3,27.6,N/A,,Clear,360,2012-10-19 05:53:00
10:53 PM,32.0,17.1,54,29.78,10.0,North,19.6,27.6,N/A,,Clear,350,2012-10-19 06:53:00
11:53 PM,33.1,17.1,52,29.78,10.0,North,15.0,26.5,N/A,,Clear,10,2012-10-19 07:53:00